Location: L�Ave Maria
(50.7161°N, 1.5911°E)
Time: 00:25:12
(UTC+00:00)

ATLAS 5 CENTAUR R/B - Pass Details

Date: 10 July 2020
Orbit: 534 x 1124 km, 63.4° (Epoch: 30 July)

Event Time Altitude Azimuth Distance (km) Brightness Sun altitude
Rises 21:13:56 0° 252° (WSW) 2,768 5.2 -8.6°
Reaches altitude 10° 21:16:10 10° 261° (W) 1,926 4.5 -8.8°
Maximum altitude 21:20:11 36° 330° (NNW) 1,022 3.5 -9.2°
Drops below altitude 10° 21:24:47 10° 37° (NE) 2,213 4.6 -9.6°
Sets 21:27:32 0° 46° (NE) 3,245 5.4 -9.9°
